7 * 24
多渠道服务支持
STARLINK-1153是美国太空探索技术公司(SpaceX)星链星座的卫星,于2020年1月29日发射入轨,属于星链项目早期部署的组网卫星,主要为全球提供低延迟、高速率的卫星互联网服务。该卫星运行在近地轨道,依托星链大规模组网,可服务偏远地区、移动载体等场景,推动全球互联网覆盖普及,也承载着SpaceX构建巨型卫星星座的战略布局。
美国
(US)
| 数据来源 | 国际轨道数据 |
| 星历时间: | 2026-09-13T04:39:52+0800 1天前 查看轨道信息 |
| 半长轴: | 6806.043km |
| 偏心率: | 0.000346 |
| 轨道倾角: | 53.152° |
| 近地点辐角 | 193.340° |
| 升交点赤经 | 98.300° |
| 平近点角 | 166.752° |
| 近地点: | 425.551km |
| 远地点: | 430.261km |
| 周期: | 93.133分钟 |
| 每日圈数: | 15.461825 |